Ely, MN

7:04 AM CDT on June 23, 2017 (GMT -0500)
Ely Municipal

Weather History for KELO - December, 2012

Change the Weather History Date:

Saturday, December 15, 2012

  Actual Average Record
Temperature  
Mean Temperature 30 °F -  
Max Temperature 35 °F 22 °F 44 °F (1997)
Min Temperature 26 °F 7 °F -27 °F (2013)
Degree Days  
Heating Degree Days 34    
Moisture  
Dew Point 30 °F    
Average Humidity 92    
Maximum Humidity 100    
Minimum Humidity 81    
Precipitation  
Precipitation 0.03 in - - ()
Sea Level Pressure  
Sea Level Pressure 29.66 in    
Wind  
Wind Speed 6 mph (ESE)    
Max Wind Speed 13 mph    
Max Gust Speed 16 mph    
Visibility 7 miles    
Events Rain , Snow    
Averages and records for this station are not official NWS values.
T = Trace of Precipitation, MM = Missing Value Source: NWS Daily Summary

Daily Weather History Graph

Daily Weather History Graph

Search for Another Location

Airport or City:

Trip Planner

Search our weather history database for the weather conditions in past years. The results will help you decide how hot, cold, wet, or windy it might be!

Date:

Astronomy

Dec. 15, 2012 Rise Set
Actual Time 7:50 AM CST 4:15 PM CST
Civil Twilight 7:13 AM CST 4:51 PM CST
Nautical Twilight 6:34 AM CST 5:31 PM CST
Astronomical Twilight 5:56 AM CST 6:08 PM CST
Moon 9:35 AM CST (12/15) 7:29 PM CST (12/15)
Length of Visible Light 9h 37m
Length of Day
8h 25m
Waxing Crescent, 8% of the Moon is Illuminated
Dec 15
Waxing Crescent
Dec 19
First Quarter
Dec 28
Full
Jan 4
Last Quarter
Jan 11
New

Hourly Weather History & Observations

Time (CST) Temp. Windchill Dew Point Humidity Pressure Visibility Wind Dir Wind Speed Gust Speed Precip Events Conditions
12:11 AM 28.4 °F 20.4 °F 26.6 °F 93% 29.88 in 10.0 mi SE 8.1 mph - N/A   Clear
12:33 AM 28.4 °F 20.4 °F 26.6 °F 93% 29.87 in 10.0 mi SE 8.1 mph - N/A   Scattered Clouds
12:53 AM 26.6 °F 19.1 °F 26.6 °F 100% 29.87 in 10.0 mi ESE 6.9 mph - N/A   Clear
1:13 AM 26.6 °F 19.1 °F 24.8 °F 93% 29.86 in 10.0 mi ESE 6.9 mph - N/A   Clear
1:32 AM 26.6 °F 17.5 °F 26.6 °F 100% 29.85 in 10.0 mi SE 9.2 mph - N/A   Clear
1:53 AM 26.6 °F 16.8 °F 26.6 °F 100% 29.84 in 7.0 mi SE 10.4 mph - N/A   Clear
2:13 AM 28.4 °F 20.4 °F 26.6 °F 93% 29.83 in 7.0 mi ESE 8.1 mph - N/A   Clear
2:32 AM 28.4 °F 21.2 °F 26.6 °F 93% 29.82 in 7.0 mi ESE 6.9 mph - N/A   Clear
2:53 AM 28.4 °F 19.7 °F 26.6 °F 93% 29.81 in 7.0 mi ESE 9.2 mph - N/A   Scattered Clouds
3:13 AM 28.4 °F 20.4 °F 26.6 °F 93% 29.80 in 7.0 mi ESE 8.1 mph - N/A   Scattered Clouds
3:33 AM 30.2 °F 20.2 °F 26.6 °F 86% 29.79 in 7.0 mi SE 12.7 mph - N/A   Scattered Clouds
3:53 AM 30.2 °F 22.6 °F 28.4 °F 93% 29.78 in 7.0 mi ESE 8.1 mph - N/A   Mostly Cloudy
4:13 AM 30.2 °F 20.8 °F 28.4 °F 93% 29.78 in 7.0 mi ESE 11.5 mph 16.1 mph N/A   Overcast
4:33 AM 30.2 °F 21.9 °F 28.4 °F 93% 29.78 in 7.0 mi SE 9.2 mph - N/A   Overcast
4:53 AM 30.2 °F 21.9 °F 28.4 °F 93% 29.78 in 7.0 mi ESE 9.2 mph - N/A   Overcast
5:13 AM 30.2 °F 22.6 °F 28.4 °F 93% 29.77 in 10.0 mi ESE 8.1 mph - N/A   Overcast
5:33 AM 30.2 °F 24.3 °F 28.4 °F 93% 29.78 in 10.0 mi ESE 5.8 mph - N/A   Overcast
5:53 AM 30.2 °F 25.4 °F 28.4 °F 93% 29.77 in 10.0 mi East 4.6 mph - N/A   Overcast
6:13 AM 30.2 °F 23.4 °F 28.4 °F 93% 29.77 in 10.0 mi East 6.9 mph - N/A   Overcast
6:33 AM 32.0 °F 27.5 °F 28.4 °F 87% 29.76 in 10.0 mi East 4.6 mph - N/A   Overcast
6:53 AM 32.0 °F 26.4 °F 28.4 °F 87% 29.76 in 10.0 mi East 5.8 mph - N/A   Overcast
7:13 AM 32.0 °F 28.7 °F 28.4 °F 87% 29.75 in 10.0 mi East 3.5 mph - N/A   Mostly Cloudy
7:32 AM 32.0 °F 28.7 °F 28.4 °F 87% 29.75 in 10.0 mi East 3.5 mph - N/A   Mostly Cloudy
7:53 AM 30.2 °F 25.4 °F 28.4 °F 93% 29.74 in 10.0 mi East 4.6 mph - N/A   Overcast
8:13 AM 32.0 °F 27.5 °F 30.2 °F 93% 29.73 in 7.0 mi ENE 4.6 mph - N/A   Overcast
8:32 AM 32.0 °F 28.7 °F 30.2 °F 93% 29.72 in 7.0 mi East 3.5 mph - N/A   Overcast
8:53 AM 32.0 °F 27.5 °F 30.2 °F 93% 29.71 in 10.0 mi East 4.6 mph - N/A   Overcast
9:13 AM 32.0 °F 26.4 °F 30.2 °F 93% 29.70 in 10.0 mi East 5.8 mph - N/A   Mostly Cloudy
9:32 AM 33.8 °F 29.6 °F 30.2 °F 87% 29.70 in 10.0 mi ESE 4.6 mph - N/A   Mostly Cloudy
9:53 AM 33.8 °F 28.6 °F 30.2 °F 87% 29.69 in 10.0 mi East 5.8 mph - N/A   Overcast
10:13 AM 33.8 °F 27.7 °F 30.2 °F 87% 29.69 in 10.0 mi ESE 6.9 mph - N/A   Overcast
10:32 AM 33.8 °F 27.7 °F 30.2 °F 87% 29.68 in 10.0 mi ESE 6.9 mph - N/A   Overcast
10:53 AM 33.8 °F 27.0 °F 30.2 °F 87% 29.67 in 10.0 mi ESE 8.1 mph - N/A   Overcast
11:13 AM 35.6 °F 29.9 °F 30.2 °F 81% 29.66 in 10.0 mi East 6.9 mph - N/A   Overcast
11:32 AM 35.6 °F 29.9 °F 30.2 °F 81% 29.65 in 10.0 mi East 6.9 mph - N/A   Overcast
11:53 AM 35.6 °F 29.9 °F 30.2 °F 81% 29.64 in 10.0 mi ESE 6.9 mph - N/A   Mostly Cloudy
12:13 PM 35.6 °F 29.2 °F 32.0 °F 87% 29.63 in 10.0 mi ESE 8.1 mph - N/A   Mostly Cloudy
12:32 PM 35.6 °F 30.7 °F 32.0 °F 87% 29.63 in 7.0 mi East 5.8 mph - N/A   Overcast
12:53 PM 33.8 °F 27.0 °F 32.0 °F 93% 29.62 in 3.0 mi East 8.1 mph - N/A Snow Light Snow
1:13 PM 35.6 °F 29.9 °F 32.0 °F 87% 29.60 in 5.0 mi East 6.9 mph - N/A Rain Light Rain
1:32 PM 35.6 °F 31.7 °F 32.0 °F 87% 29.59 in 5.0 mi East 4.6 mph - N/A Rain Light Rain
1:53 PM 35.6 °F 29.2 °F 32.0 °F 87% 29.58 in 7.0 mi East 8.1 mph - N/A Rain Light Rain
2:13 PM 35.6 °F 30.7 °F 32.0 °F 87% 29.58 in 7.0 mi East 5.8 mph - N/A   Overcast
2:32 PM 35.6 °F 31.7 °F 32.0 °F 87% 29.58 in 7.0 mi East 4.6 mph - N/A   Overcast
2:53 PM 35.6 °F 29.2 °F 32.0 °F 87% 29.57 in 10.0 mi ESE 8.1 mph - N/A   Overcast
3:13 PM 35.6 °F 29.2 °F 33.8 °F 93% 29.56 in 10.0 mi ESE 8.1 mph - N/A   Overcast
3:33 PM 35.6 °F 29.9 °F 32.0 °F 87% 29.56 in 10.0 mi ESE 6.9 mph - N/A   Overcast
3:53 PM 35.6 °F 29.2 °F 32.0 °F 87% 29.56 in 10.0 mi ESE 8.1 mph - N/A   Overcast
4:13 PM 35.6 °F 28.6 °F 32.0 °F 87% 29.56 in 10.0 mi ESE 9.2 mph - N/A   Overcast
4:33 PM 33.8 °F 27.0 °F 32.0 °F 93% 29.56 in 10.0 mi ESE 8.1 mph - N/A   Overcast
4:53 PM 33.8 °F 27.7 °F 32.0 °F 93% 29.56 in 10.0 mi ESE 6.9 mph - N/A Rain Light Rain
5:13 PM 33.8 °F 28.6 °F 32.0 °F 93% 29.56 in 10.0 mi East 5.8 mph - N/A   Light Drizzle
5:33 PM 33.8 °F 28.6 °F 32.0 °F 93% 29.56 in 10.0 mi ESE 5.8 mph - N/A Rain Light Rain
5:53 PM 33.8 °F 28.6 °F 32.0 °F 93% 29.56 in 7.0 mi East 5.8 mph - N/A Snow Light Snow
6:13 PM 33.8 °F 29.6 °F 32.0 °F 93% 29.56 in 5.0 mi East 4.6 mph - N/A   Overcast
6:33 PM 33.8 °F 30.8 °F 32.0 °F 93% 29.56 in 7.0 mi East 3.5 mph - N/A Snow Light Snow
6:53 PM 33.8 °F 30.8 °F 32.0 °F 93% 29.56 in 5.0 mi East 3.5 mph - N/A Snow Light Snow
7:13 PM 33.8 °F - 32.0 °F 93% 29.55 in 5.0 mi Calm Calm - N/A Snow Light Snow
7:33 PM 33.8 °F 30.8 °F 32.0 °F 93% 29.55 in 4.0 mi East 3.5 mph - 0.01 in Rain Light Rain
7:53 PM 33.8 °F - 32.0 °F 93% 29.54 in 4.0 mi Calm Calm - 0.01 in Rain Light Rain
8:13 PM 33.8 °F - 32.0 °F 93% 29.54 in 4.0 mi Calm Calm - N/A Rain Rain
8:33 PM 33.8 °F - 32.0 °F 93% 29.53 in 4.0 mi Calm Calm - N/A   Light Drizzle
8:53 PM 33.8 °F - 32.0 °F 93% 29.53 in 4.0 mi Calm Calm - N/A Rain Light Rain
9:13 PM 33.8 °F - 32.0 °F 93% 29.53 in 3.0 mi Calm Calm - N/A Snow Light Snow
9:33 PM 33.8 °F - 32.0 °F 93% 29.53 in 3.0 mi Calm Calm - N/A Snow Light Snow
9:53 PM 32.0 °F - 32.0 °F 100% 29.52 in 2.5 mi Calm Calm - N/A Snow Light Snow
10:13 PM 32.0 °F - 32.0 °F 100% 29.52 in 2.5 mi Calm Calm - N/A   Overcast
10:33 PM 32.0 °F - 32.0 °F 100% 29.52 in 2.5 mi Calm Calm - N/A   Overcast
10:53 PM 32.0 °F - 32.0 °F 100% 29.52 in 2.0 mi Calm Calm - N/A   Overcast
11:13 PM 32.0 °F - 32.0 °F 100% 29.52 in 2.0 mi Calm Calm - 0.01 in Snow Light Snow
11:33 PM 32.0 °F - 32.0 °F 100% 29.52 in 1.8 mi Calm Calm - 0.02 in Snow Light Snow
11:53 PM 32.0 °F - 32.0 °F 100% 29.51 in 1.2 mi Calm Calm - 0.02 in Snow Light Snow